Regional Weather Roundup
Issued by NWS

Home | Current Version | Previous Version | Graphics & Text | Print | Product List | Glossary On
Versions: 1 2 3 4 5 6 7 8 9 10 11 12 13 14 15 16 17 18 19 20 21 22 23 24 25 26 27 28 29 30 31 32 33 34 35 36 37 38 39 40 41 42 43 44 45 46 47 48 49 50
000
ASUS44 KMEG 280100
RWRTN
TENNESSEE HOURLY STATE WEATHER ROUNDUP
NATIONAL WEATHER SERVICE MEMPHIS TN
800 PM CDT WED MAY 27 2015

TNZ002-004-019-021-049-052-054-088>092-280200-
WEST TENNESSEE

CITY           SKY/WX    TMP DP  RH WIND       PRES   REMARKS
MEMPHIS INTL   MOCLDY    75  66  73 SE6       30.09S
NWS MEMPHIS      N/A     73 N/A N/A MISG        N/A
JACKSON        MOCLDY    72  67  84 SE3       30.12R
DYERSBURG      MOCLDY    73  57  56 CALM      30.11R
PARIS          CLEAR     70  68  94 CALM      30.13R
LEXINGTON      CLEAR     68  66  94 CALM      30.12S
$$

TNZ008-025-027-028-033-062-065-066-280200-
NORTH MIDDLE TENNESSEE

CITY           SKY/WX    TMP DP  RH WIND       PRES   REMARKS
NASHVILLE      CLOUDY    70  68  93 SE3       30.15R
CLARKSVILLE    CLOUDY    71  67  87 CALM      30.14R
COOKEVILLE     CLEAR     68  66  94 SE3       30.18R
CROSSVILLE     MOCLDY    69  63  81 W3        30.23R
$$

TNZ061-075-076-078-094-096-097-280200-
SOUTH MIDDLE TENNESSEE

CITY           SKY/WX    TMP DP  RH WIND       PRES   REMARKS
FAYETTEVILLE     N/A    N/A N/A N/A MISG      30.19R
TULLAHOMA      PTCLDY    72  64  78 SE3       30.19R
WINCHESTER     CLEAR     70  64  83 S3        30.18S
MCMINNVILLE    PTCLDY    72  66  83 NE3       30.18S
COLUMBIA       PTCLDY    68  68 100 CALM      30.14F
SHELBYVILLE    CLOUDY    72  68  88 CALM      30.18R
$$

TNZ017-018-042-046-047-280200-
NORTHEAST TENNESSEE

CITY           SKY/WX    TMP DP  RH WIND       PRES   REMARKS
TRI CITIES     PTCLDY    77  58  51 W5        30.20R
ELIZABETHTON   MOCLDY    70  63  78 CALM      30.21R
$$

TNZ012-013-036-069-073-074-280200-
CENTRAL EAST TENNESSEE

CITY           SKY/WX    TMP DP  RH WIND       PRES   REMARKS
KNOXVILLE      CLOUDY    78  61  55 SE5       30.16F
OAK RIDGE      CLOUDY    76  67  73 CALM      30.18F
GATLINBURG       N/A     75  61  60 CALM      30.18S
$$

TNZ083-085-099-280200-
SOUTHEAST TENNESSEE

CITY           SKY/WX    TMP DP  RH WIND       PRES   REMARKS
CHATTANOOGA    CLOUDY    78  65  63 SE5       30.17R
$$

SKY/WX REPORTED AS FAIR MEANS FEW OR NO CLOUDS BELOW
12 THOUSAND FEET.



USA.gov is the U.S. government's official web portal to all federal, state and local government web resources and services.